Weather History for KHFD - January, 2013

Change the Weather History Date:

Friday, January 25, 2013

  Actual Average Record
Temperature  
Mean Temperature 18 °F -  
Max Temperature 23 °F 38 °F 58 °F (1938)
Min Temperature 12 °F 19 °F -5 °F (1976)
Degree Days  
Heating Degree Days 48    
Moisture  
Dew Point 4 °F    
Average Humidity 59    
Maximum Humidity 93    
Minimum Humidity 28    
Precipitation  
Precipitation 0.00 in - - ()
Sea Level Pressure  
Sea Level Pressure 30.20 in    
Wind  
Wind Speed 6 mph (NW)    
Max Wind Speed 12 mph    
Max Gust Speed 17 mph    
Visibility 7 miles    
Events Snow    
Averages and records for this station are not official NWS values.
T = Trace of Precipitation, MM = Missing Value Source: NWS Daily Summary

Daily Weather History Graph

Daily Weather History Graph

Search for Another Location

Airport or City:

Trip Planner

Search our weather history database for the weather conditions in past years. The results will help you decide how hot, cold, wet, or windy it might be!

Date:

Astronomy

Jan. 25, 2013 Rise Set
Actual Time 7:08 AM EST 4:57 PM EST
Civil Twilight 6:39 AM EST 5:27 PM EST
Nautical Twilight 6:05 AM EST 6:01 PM EST
Astronomical Twilight 5:32 AM EST 6:34 PM EST
Moon 3:52 PM EST (1/25) 5:46 AM EST (1/25)
Length of Visible Light 10h 48m
Length of Day
9h 48m
Waxing Gibbous, 98% of the Moon is Illuminated
Jan 25
Waxing Gibbous
Jan 26
Full
Feb 3
Last Quarter
Feb 10
New
Feb 17
First Quarter

Hourly Weather History & Observations

Time (EST) Temp. Windchill Dew Point Humidity Pressure Visibility Wind Dir Wind Speed Gust Speed Precip Events Conditions
12:53 AM 14.0 °F 0.5 °F -0.0 °F 54% 30.32 in 10.0 mi NW 11.5 mph 17.3 mph N/A   Clear
1:53 AM 14.0 °F - -0.0 °F 54% 30.34 in 10.0 mi Calm Calm - N/A   Clear
2:53 AM 14.0 °F 3.9 °F -2.9 °F 47% 30.35 in 10.0 mi Variable 6.9 mph - N/A   Clear
3:53 AM 12.9 °F 0.7 °F -4.0 °F 47% 30.35 in 10.0 mi WNW 9.2 mph - N/A   Clear
4:53 AM 12.9 °F -0.9 °F -4.0 °F 47% 30.35 in 10.0 mi WNW 11.5 mph - N/A   Clear
5:53 AM 12.0 °F 5.9 °F -4.0 °F 49% 30.36 in 10.0 mi NNW 3.5 mph - N/A   Clear
6:53 AM 12.0 °F 1.5 °F -6.0 °F 44% 30.37 in 10.0 mi NNW 6.9 mph - N/A   Clear
7:53 AM 12.0 °F 1.5 °F -5.1 °F 46% 30.39 in 10.0 mi NW 6.9 mph - N/A   Clear
8:53 AM 14.0 °F 2.0 °F -5.1 °F 43% 30.38 in 10.0 mi NNW 9.2 mph - N/A   Clear
9:53 AM 15.1 °F 3.3 °F -6.0 °F 39% 30.38 in 10.0 mi NW 9.2 mph - N/A   Clear
10:53 AM 18.0 °F 9.8 °F -6.0 °F 35% 30.36 in 10.0 mi WNW 5.8 mph - N/A   Clear
11:53 AM 19.9 °F 12.1 °F -8.0 °F 29% 30.33 in 10.0 mi NNW 5.8 mph - N/A   Clear
12:53 PM 19.9 °F 13.4 °F -6.0 °F 32% 30.27 in 10.0 mi Variable 4.6 mph - N/A   Clear
1:53 PM 21.0 °F - -6.0 °F 30% 30.24 in 10.0 mi Calm Calm - N/A   Clear
2:53 PM 21.9 °F 17.2 °F -7.1 °F 28% 30.23 in 10.0 mi NW 3.5 mph - N/A   Clear
3:53 PM 23.0 °F 18.4 °F -6.0 °F 28% 30.20 in 10.0 mi West 3.5 mph - N/A   Mostly Cloudy
4:53 PM 23.0 °F 18.4 °F -4.0 °F 31% 30.19 in 10.0 mi WSW 3.5 mph - N/A   Overcast
5:53 PM 23.0 °F 18.4 °F -4.0 °F 31% 30.16 in 10.0 mi West 3.5 mph - N/A   Overcast
6:53 PM 21.9 °F 14.5 °F -0.9 °F 37% 30.15 in 10.0 mi SSW 5.8 mph - N/A   Overcast
7:53 PM 21.9 °F - -0.9 °F 37% 30.12 in 10.0 mi Calm Calm - N/A   Overcast
8:51 PM 19.4 °F 12.8 °F 10.4 °F 68% 30.11 in 2.5 mi Variable 4.6 mph - 0.00 in Snow Light Snow
8:53 PM 19.9 °F - 10.9 °F 68% 30.11 in 2.5 mi Calm Calm - 0.00 in Snow Light Snow
9:06 PM 19.4 °F - 12.2 °F 74% 30.11 in 2.0 mi Calm Calm - 0.00 in Snow Light Snow
9:35 PM 19.4 °F - 14.0 °F 80% 30.10 in 1.2 mi Calm Calm - 0.00 in Snow Light Snow
9:53 PM 19.0 °F - 15.1 °F 85% 30.09 in 2.0 mi Calm Calm - 0.00 in Snow Light Snow
10:05 PM 19.4 °F - 15.8 °F 86% 30.09 in 3.0 mi Calm Calm - 0.00 in Snow Light Snow
10:26 PM 19.4 °F - 15.8 °F 86% 30.08 in 1.8 mi Calm Calm - 0.00 in Snow Light Snow
10:38 PM 19.4 °F 14.3 °F 15.8 °F 86% 30.08 in 1.8 mi North 3.5 mph - 0.00 in Snow Light Snow
10:53 PM 19.0 °F 12.3 °F 15.1 °F 85% 30.08 in 1.5 mi North 4.6 mph - 0.00 in Snow Light Snow
11:00 PM 19.4 °F 12.8 °F 15.8 °F 86% 30.08 in 2.0 mi North 4.6 mph - 0.00 in Snow Light Snow
11:10 PM 17.6 °F 10.7 °F 15.8 °F 93% 30.08 in 3.0 mi North 4.6 mph - 0.00 in Snow Light Snow
11:19 PM 17.6 °F 10.7 °F 15.8 °F 93% 30.08 in 6.0 mi North 4.6 mph - 0.00 in Snow Light Snow
11:26 PM 17.6 °F 12.3 °F 15.8 °F 93% 30.08 in 7.0 mi North 3.5 mph - 0.00 in   Overcast
11:51 PM 17.6 °F 10.7 °F 15.8 °F 93% 30.07 in 2.0 mi NNE 4.6 mph - 0.00 in Snow Light Snow
11:53 PM 18.0 °F 9.8 °F 14.0 °F 84% 30.07 in 2.0 mi NNE 5.8 mph - 0.00 in Snow Light Snow